TimeEDT,TemperatureF,Dew PointF,Humidity,Sea Level PressureIn,VisibilityMPH,Wind Direction,Wind SpeedMPH,Gust SpeedMPH,PrecipitationIn,Events,Conditions,WindDirDegrees,DateUTC
12:25 AM,51.8,44.6,76,30.11,10.0,South,10.4,-,N/A,,Overcast,180,2013-04-19 04:25:00
12:52 AM,51.1,45.0,80,30.12,10.0,SSW,11.5,19.6,N/A,,Overcast,200,2013-04-19 04:52:00
1:52 AM,50.0,46.9,89,30.07,9.0,South,5.8,-,N/A,,Overcast,170,2013-04-19 05:52:00
2:00 AM,50.0,48.2,94,30.05,8.0,South,6.9,-,N/A,,Overcast,180,2013-04-19 06:00:00
2:52 AM,50.0,46.9,89,30.06,9.0,South,6.9,-,N/A,,Overcast,190,2013-04-19 06:52:00
3:47 AM,50.0,48.2,94,30.04,3.0,Calm,Calm,-,N/A,,Overcast,0,2013-04-19 07:47:00
3:52 AM,50.0,48.9,96,30.04,2.5,Calm,Calm,-,N/A,,Overcast,0,2013-04-19 07:52:00
4:20 AM,50.0,48.2,94,30.03,1.5,Calm,Calm,-,N/A,,Overcast,0,2013-04-19 08:20:00
4:27 AM,50.0,48.2,94,30.02,1.0,Calm,Calm,-,N/A,,Overcast,0,2013-04-19 08:27:00
4:48 AM,50.0,48.2,94,30.00,1.2,SE,4.6,-,N/A,,Overcast,140,2013-04-19 08:48:00
4:52 AM,50.0,48.9,96,30.01,1.5,Calm,Calm,-,N/A,,Overcast,0,2013-04-19 08:52:00
5:38 AM,51.8,50.0,94,29.98,1.0,SSW,3.5,-,N/A,,Overcast,210,2013-04-19 09:38:00
5:52 AM,51.1,50.0,96,29.99,1.2,South,8.1,-,N/A,,Overcast,190,2013-04-19 09:52:00
6:06 AM,51.8,51.8,100,29.99,1.5,Variable,4.6,-,N/A,,Overcast,0,2013-04-19 10:06:00
6:40 AM,51.8,51.8,100,29.98,1.2,South,4.6,-,N/A,,Overcast,170,2013-04-19 10:40:00
6:48 AM,53.6,51.8,94,29.98,1.8,South,4.6,-,N/A,,Overcast,190,2013-04-19 10:48:00
6:52 AM,53.1,52.0,96,29.99,2.0,SSW,4.6,-,N/A,,Overcast,200,2013-04-19 10:52:00
7:15 AM,53.6,53.6,100,29.97,3.0,South,5.8,-,0.01,,Overcast,180,2013-04-19 11:15:00
7:52 AM,55.9,55.0,97,29.97,8.0,South,11.5,-,0.01,,Overcast,180,2013-04-19 11:52:00
8:11 AM,57.2,55.4,94,29.96,9.0,South,10.4,-,N/A,,Overcast,180,2013-04-19 12:11:00
8:37 AM,57.2,55.4,94,29.97,6.0,South,9.2,17.3,N/A,,Overcast,180,2013-04-19 12:37:00
8:52 AM,59.0,57.0,93,29.97,7.0,South,10.4,-,N/A,,Overcast,190,2013-04-19 12:52:00
9:16 AM,59.0,57.2,94,29.95,10.0,South,8.1,18.4,N/A,,Overcast,180,2013-04-19 13:16:00
9:23 AM,59.0,55.4,88,29.94,10.0,South,10.4,19.6,N/A,,Overcast,180,2013-04-19 13:23:00
9:35 AM,59.0,57.2,94,29.94,10.0,South,9.2,-,N/A,,Overcast,170,2013-04-19 13:35:00
9:52 AM,60.1,57.0,90,29.94,10.0,South,9.2,18.4,N/A,,Overcast,170,2013-04-19 13:52:00
10:52 AM,61.0,57.0,87,29.93,10.0,South,10.4,24.2,N/A,,Overcast,180,2013-04-19 14:52:00
11:33 AM,62.6,57.2,82,29.90,10.0,South,11.5,16.1,N/A,,Overcast,170,2013-04-19 15:33:00
11:52 AM,64.0,57.0,78,29.90,10.0,South,12.7,19.6,N/A,,Overcast,180,2013-04-19 15:52:00
12:52 PM,66.9,57.0,70,29.86,10.0,South,9.2,-,N/A,,Overcast,180,2013-04-19 16:52:00
1:31 PM,69.8,57.2,64,29.82,10.0,South,11.5,18.4,N/A,,Overcast,190,2013-04-19 17:31:00
1:52 PM,69.1,57.0,65,29.81,10.0,South,17.3,27.6,N/A,,Overcast,180,2013-04-19 17:52:00
2:52 PM,70.0,57.0,63,29.78,10.0,South,20.7,29.9,N/A,,Overcast,180,2013-04-19 18:52:00
3:52 PM,71.1,59.0,66,29.76,10.0,South,19.6,27.6,N/A,,Mostly Cloudy,180,2013-04-19 19:52:00
4:02 PM,69.8,59.0,68,29.74,10.0,South,16.1,31.1,N/A,,Mostly Cloudy,180,2013-04-19 20:02:00
4:52 PM,66.0,60.1,81,29.73,10.0,South,16.1,25.3,N/A,,Overcast,180,2013-04-19 20:52:00
5:52 PM,66.0,59.0,78,29.70,10.0,South,15.0,27.6,N/A,,Overcast,190,2013-04-19 21:52:00
6:52 PM,64.9,60.1,84,29.69,10.0,South,16.1,23.0,N/A,,Overcast,180,2013-04-19 22:52:00
7:52 PM,64.9,59.0,81,29.69,10.0,South,20.7,31.1,N/A,,Overcast,190,2013-04-19 23:52:00
8:32 PM,62.6,59.0,88,29.67,10.0,South,16.1,28.8,N/A,,Overcast,170,2013-04-20 00:32:00
8:52 PM,63.0,59.0,87,29.67,10.0,South,15.0,28.8,N/A,,Overcast,170,2013-04-20 00:52:00
9:52 PM,63.0,60.1,90,29.66,10.0,South,17.3,25.3,0.00,,Overcast,180,2013-04-20 01:52:00
10:52 PM,64.0,60.1,87,29.63,10.0,South,16.1,26.5,0.02,,Overcast,180,2013-04-20 02:52:00
11:48 PM,62.6,60.8,94,29.63,3.0,South,15.0,23.0,0.10,Rain,Rain,180,2013-04-20 03:48:00
11:52 PM,63.0,61.0,93,29.64,4.0,South,13.8,23.0,0.11,Rain,Rain,180,2013-04-20 03:52:00